Other Surface Observations
Issued by NWS

Home | Current Version | Previous Version | Text Only | Print | Product List | Glossary On
Versions: 1 2 3 4 5 6 7 8 9 10 11 12 13 14 15 16 17 18 19 20 21 22 23 24 25 26 27 28 29 30 31 32 33 34 35 36 37 38 39 40 41 42 43 44 45 46 47 48 49 50
000
SXUS52 KTAE 250518
OSOTAE
OSOTAE
North Florida/South Alabama/Southwest Georgia Weather Roundup
National Weather Service Tallahassee Florida
100 AM EDT SAT OCT 25 2014

Note: "fair" indicates few or no clouds below 12,000 feet with no
significant weather and/or obstructions to visibility.

!FLZ017-115-028-034-025-250600
...North Florida...

CITY           SKY/WX    TMP DP  RH WIND       PRES   REMARKS
TALLAHASSEE    CLEAR     50  45  83 CALM      30.02S
APALACHICOLA   CLEAR     56  51  84 CALM      30.03S
PERRY          CLEAR     50  50 100 CALM      30.02F
CROSS CITY       N/A     49  47  93 CALM      30.01F
JACKSONVILLE   CLEAR     52  51  97 CALM      30.00S
$$

!FLZ112-006-005-002-011-250600
...Florida Panhandle...

CITY           SKY/WX    TMP DP  RH WIND       PRES   REMARKS
MARIANNA       LGT RAIN  51  50  96 CALM      30.02F
BONIFAY        NOT AVBL
PANAMA CITY NW FAIR      51  47  86 CALM      30.03S
TYNDALL AFB    CLEAR     54  49  85 CALM      30.03S
TYND DRONE APT FAIR      54  51  90 MISG      30.02S
DE FUNIAK SPR  FAIR      55  48  79 NW5       30.04F
EGLIN AFB      CLEAR     57  45  65 NW3       30.04F
DESTIN         CLEAR     64  49  57 N8        30.04F
HURLBURT       CLEAR     53  43  70 N6        30.04S
CRESTVIEW      CLEAR     52  46  80 N5        30.06S
PENSACOLA      CLEAR     57  44  62 N7        30.05F
$$

!ALZ063-066-250600
...South Alabama...

CITY           SKY/WX    TMP DP  RH WIND       PRES   REMARKS
DOTHAN         CLEAR     50  46  86 NW3       30.07S
OZARK CAIRNS   CLEAR     53  46  75 NW2       30.04S
FT RUCKER HELI CLEAR     47  46  97 CALM      30.03F
RUCKER HELI 3  FAIR      49  46  90 NW3       30.06F
RUCKER HELI 2  FAIR      50  47  89 NW3       30.04S
FLORALA APT    CLEAR     49  45  86 CALM      30.06F
ANDALUSIA      CLEAR     53  46  77 CALM      30.05S
TROY           CLEAR     46  44  93 CALM      30.06S
EUFALA         FAIR      47  45  93 CALM      30.02F
MOBILE         CLEAR     51  48  89 NW5       30.07F
$$

!GAZ120>161-250600
...Southwest and South Central Georgia...

CITY           SKY/WX    TMP DP  RH WIND       PRES   REMARKS
THOMASVILLE    FAIR      54  54 100 CALM      30.03F
BAINBRIDGE     CLEAR     54  50  87 CALM      30.03S
MOODY AFB      CLEAR     51  47  89 S2        30.01F
VALDOSTA       CLEAR     49  44  83 CALM      30.02S
MOULTRIE       CLEAR     52  52 100 CALM      30.02F
BLAKELY        CLEAR     50  48  93 CALM        N/A
ALBANY         CLEAR     52  49  89 CALM      30.04S
TIFTON         FAIR      52  47  85 CALM      30.01S
FITZGERALD     FAIR      48  46  91 CALM      30.03F
CORDELE        FAIR      51  49  92 CALM      30.02F
AMERICUS       FAIR      50  48  93 CALM      30.04S
HOMERVILLE     FAIR      52  50  93 CALM      30.01F
$$

!GMZ750-755-770-775-250600
...Coastal and Buoy Obs...

STATION/POSITION TIME  TEMP    WIND        PRES    VSBY  WAVE
                       AIR SEA DIR/SP/G                  HT/PER
                 (UTC) (F)     (DEG/KT/KT) (MB)    (MI)  (FT/S)
KEATON BEACH     0500   60      10/  3/  4 1016.6F
CEDAR KEY        0455   62      10/  4/  5 1016.4F
C TOWER          0500   71     360/  7/  8 1016.6F
APALACHICOLA BUO 0500   74 80   30/ 10/ 16 1016.0F         2/ 4
PANAMA CITY BUOY 0405   73 80   10/ 10/ 16 1016.9F         3/ 6
MOBILE BUOY      0426   75 78   20/ 16/ 17 1018.1F         2/ 3
ORANGE BCH AL BU 0500   73 78   10/ 14/ 16 1017.1F         2/ 3
$$



USA.gov is the U.S. government's official web portal to all federal, state and local government web resources and services.